Date,TemperatureHighF,TemperatureAvgF,TemperatureLowF,DewpointHighF,DewpointAvgF,DewpointLowF,HumidityHigh,HumidityAvg,HumidityLow,PressureMaxIn,PressureMinIn,WindSpeedMaxMPH,WindSpeedAvgMPH,GustSpeedMaxMPH,PrecipitationSumIn
2013-1-1,20.2,7.7,-2.4,14.0,3.7,-7.0,91,83,75,30.24,30.07,12,2,13,0.00
2013-1-2,22.3,8.6,-4.3,13.0,2.5,-8.0,88,76,65,30.25,30.18,8,2,10,0.00
2013-1-3,19.7,4.7,-7.1,9.0,-2.1,-11.0,88,75,55,30.32,30.25,6,1,8,0.00
2013-1-4,26.9,11.2,-1.8,9.0,1.2,-6.0,85,67,40,30.27,30.18,9,2,11,0.00
2013-1-5,35.7,18.2,5.9,12.0,4.5,-2.0,75,57,30,30.35,30.23,8,2,11,0.00
2013-1-6,37.8,21.6,8.3,14.0,7.0,0.0,73,55,33,30.31,30.14,7,1,10,0.00
2013-1-7,35.3,22.4,13.2,12.0,5.9,2.0,65,51,34,30.14,30.09,9,3,10,0.00
2013-1-8,35.5,21.4,8.0,16.0,6.8,-1.0,81,56,29,30.36,30.09,10,2,13,0.01
2013-1-9,43.1,26.0,9.9,19.0,12.7,6.0,90,61,32,30.38,30.16,9,2,9,0.02
2013-1-10,46.0,30.6,14.5,23.0,12.5,4.0,73,50,19,30.16,29.72,19,6,29,0.02
2013-1-11,31.2,15.9,4.9,22.0,7.6,-3.0,87,70,50,29.92,29.60,26,7,38,0.00
2013-1-12,18.8,6.2,-1.0,4.0,-3.7,-10.0,82,65,43,29.94,29.87,11,4,13,0.02
2013-1-13,11.2,4.5,-3.4,6.0,-3.1,-9.0,83,71,50,29.98,29.90,7,3,11,0.00
2013-1-14,8.3,-2.2,-12.9,2.0,-7.5,-18.0,85,78,70,30.11,29.98,10,1,12,0.00
2013-1-15,13.7,0.5,-15.6,3.0,-6.9,-21.0,83,72,57,30.34,30.11,8,2,10,0.00
2013-1-16,27.9,13.4,-3.1,14.0,5.6,-8.0,91,72,55,30.42,30.32,7,2,13,0.04
2013-1-17,38.2,21.3,8.3,20.0,12.2,5.0,91,70,42,30.46,30.39,6,2,10,0.03
2013-1-18,39.7,25.1,13.4,18.0,13.0,8.0,85,62,39,30.40,30.32,6,2,9,0.01
2013-1-19,39.2,25.5,9.5,11.0,6.7,0.0,73,47,26,30.42,30.33,9,3,11,0.00
2013-1-20,41.5,25.9,14.8,10.0,3.5,0.0,58,40,21,30.37,30.29,9,3,11,0.00
2013-1-21,44.1,27.2,12.8,13.0,6.9,2.0,67,44,22,30.37,30.31,8,2,11,0.00
2013-1-22,49.5,29.5,14.4,7.0,1.6,-7.0,59,34,10,30.39,30.34,7,2,11,0.00
2013-1-23,49.9,34.2,15.7,14.0,3.4,-6.0,44,29,10,30.41,30.35,10,3,12,0.00
2013-1-24,48.8,38.0,30.6,29.0,18.6,7.0,84,48,30,30.36,30.31,12,2,13,0.00
2013-1-25,42.3,35.3,29.8,32.0,29.8,26.0,89,80,67,30.35,30.27,5,1,10,0.00
2013-1-26,37.7,34.3,32.6,35.0,32.0,30.0,96,91,85,30.27,29.96,5,0,6,0.50
2013-1-27,44.7,36.8,31.7,36.0,29.4,20.0,96,77,41,30.05,29.93,24,4,35,0.05
2013-1-28,32.4,27.8,17.6,30.0,24.2,15.0,94,86,71,29.96,29.86,15,5,27,0.05
2013-1-29,20.1,14.7,9.4,15.0,10.9,5.0,90,84,67,30.05,29.84,7,2,11,0.00
2013-1-30,25.6,17.7,7.2,21.0,12.2,3.0,87,79,61,30.21,30.05,14,5,19,0.00
2013-1-31,36.9,28.2,18.8,22.0,18.9,14.0,84,70,47,30.34,30.20,17,4,22,0.06
2013-2-1,42.1,30.0,19.0,20.0,14.9,11.0,75,55,34,30.36,30.27,11,4,20,0.05
2013-2-2,41.2,28.1,14.9,18.0,13.5,8.0,75,56,34,30.44,30.36,10,2,12,0.01
2013-2-3,42.4,29.8,20.3,27.0,15.7,5.0,94,60,24,30.36,30.17,11,2,17,0.00
2013-2-4,40.3,27.8,15.5,26.0,18.3,10.0,95,71,36,30.21,30.16,10,2,11,0.01
2013-2-5,48.0,32.0,17.1,20.0,14.2,8.0,71,50,26,30.22,30.09,11,4,14,0.00
2013-2-6,47.3,33.3,23.2,27.0,20.3,14.0,91,62,31,30.17,30.04,17,3,20,0.00
2013-2-7,41.2,29.6,20.9,26.0,18.1,10.0,93,66,28,30.25,30.12,9,2,14,0.03
2013-2-8,43.1,33.9,22.3,26.0,15.5,8.0,72,49,28,30.12,29.83,22,7,35,0.00
2013-2-9,32.7,24.7,19.0,23.0,19.9,14.0,91,82,47,29.85,29.72,9,3,18,0.03
2013-2-10,27.7,20.0,14.0,21.0,15.7,10.0,91,83,64,29.95,29.85,6,1,11,0.13
2013-2-11,27.7,19.4,14.0,20.0,15.1,11.0,91,84,61,30.09,29.93,10,1,12,0.00
2013-2-12,26.5,15.5,4.2,21.0,10.0,0.0,91,79,63,30.22,30.09,7,1,11,0.00
2013-2-13,33.7,20.7,4.0,21.0,13.4,1.0,91,74,54,30.23,30.18,7,2,13,0.02
2013-2-14,32.8,21.8,11.7,22.0,14.4,8.0,90,74,56,30.29,30.16,11,2,14,0.02
2013-2-15,32.1,22.0,8.5,18.0,10.5,4.0,91,63,44,30.41,30.29,11,4,16,0.02
2013-2-16,44.6,31.1,13.8,14.0,8.3,4.0,68,40,24,30.42,30.21,12,5,15,0.03
2013-2-17,47.9,35.6,26.1,23.0,4.5,-5.0,86,30,12,30.20,29.87,17,6,25,0.00
2013-2-18,33.8,21.2,5.3,23.0,7.9,-1.0,92,61,24,30.14,29.96,10,2,14,0.09
2013-2-19,43.4,26.9,9.2,7.0,1.0,-9.0,64,36,16,30.11,29.83,9,3,10,0.01
2013-2-20,32.7,27.5,21.7,25.0,17.8,6.0,91,69,42,29.83,29.72,13,2,17,0.01
2013-2-21,29.5,24.7,21.6,25.0,21.6,19.0,92,88,80,29.95,29.76,6,1,11,0.04
2013-2-22,24.0,19.1,9.8,21.0,16.3,6.0,92,88,83,30.10,29.94,8,2,13,0.00
2013-2-23,33.4,20.0,8.4,27.0,14.2,4.0,91,79,51,30.08,29.82,13,4,20,0.05
2013-2-24,21.5,15.7,4.7,15.0,11.2,1.0,90,82,72,30.08,29.86,9,2,15,0.01
2013-2-25,31.9,20.2,11.9,21.0,14.5,9.0,90,79,52,30.16,30.00,7,2,12,0.01
2013-2-26,24.6,18.6,11.9,19.0,14.2,9.0,90,82,76,30.18,29.92,11,3,17,0.00
2013-2-27,28.1,15.7,3.2,16.0,7.8,-1.0,91,72,46,30.30,30.17,12,2,13,0.00
2013-2-28,34.3,21.4,3.3,15.0,7.6,-3.0,79,57,37,30.40,30.28,13,3,13,0.03
2013-3-1,39.9,29.3,21.4,23.0,18.6,12.0,77,65,49,30.47,30.38,10,2,12,0.09
2013-3-2,52.6,35.4,20.3,24.0,19.8,15.0,83,57,26,30.47,30.27,6,3,11,0.02
2013-3-3,48.3,41.6,34.7,30.0,20.7,16.0,82,45,30,30.27,29.99,15,4,20,0.00
2013-3-4,42.8,31.8,16.7,34.0,25.5,11.0,94,79,54,30.24,29.97,15,4,27,0.20
2013-3-5,49.4,28.9,8.8,19.0,12.1,4.0,85,54,19,30.32,30.22,6,2,9,0.00
2013-3-6,56.3,41.2,27.5,19.0,14.8,8.0,60,37,15,30.22,30.08,14,4,20,0.00
2013-3-7,56.1,40.8,27.8,19.0,13.5,4.0,63,37,13,30.13,30.07,14,4,25,0.00
2013-3-8,47.4,35.9,25.8,31.0,21.4,12.0,94,59,29,30.09,29.86,12,4,22,0.00
2013-3-9,29.7,26.7,23.5,26.0,23.0,18.0,92,86,65,30.11,29.80,10,2,15,0.10
2013-3-10,36.6,26.1,15.0,22.0,17.0,12.0,93,70,44,30.29,30.12,10,2,15,0.16
2013-3-11,43.9,31.3,16.4,21.0,17.2,10.0,83,58,39,30.27,30.19,9,3,12,0.00
2013-3-12,49.5,37.5,28.1,27.0,23.2,19.0,78,58,39,30.37,30.23,10,2,16,0.00
2013-3-13,55.1,41.3,28.1,26.0,20.3,15.0,73,47,23,30.43,30.36,8,4,13,0.00
2013-3-14,60.7,46.2,32.9,22.0,18.0,15.0,53,34,18,30.46,30.38,12,5,16,0.00
2013-3-15,60.3,50.7,42.5,23.0,19.5,16.0,38,30,20,30.38,30.16,10,5,17,0.00
2013-3-16,46.6,40.5,33.6,37.0,29.1,21.0,94,66,37,30.16,30.04,11,4,22,0.04
2013-3-17,50.9,39.8,30.8,31.0,19.0,9.0,85,46,22,30.06,29.93,23,7,29,0.00
2013-3-18,45.2,34.3,25.3,13.0,9.8,6.0,57,37,22,30.15,30.04,21,6,28,0.00
2013-3-19,46.9,36.2,28.6,17.0,10.5,4.0,60,36,18,30.29,30.14,10,3,14,0.00
2013-3-20,43.9,36.6,27.8,30.0,14.4,3.0,71,43,20,30.29,30.03,25,4,25,0.00
2013-3-21,46.3,37.5,22.4,34.0,22.7,4.0,92,59,26,30.03,29.89,19,5,38,0.04
2013-3-22,46.1,32.7,21.4,15.0,8.8,4.0,58,39,20,30.02,29.80,21,6,35,0.00
2013-3-23,25.0,17.7,9.5,14.0,8.6,3.0,87,68,49,30.13,29.91,11,4,24,0.00
2013-3-24,30.3,19.2,8.2,10.0,3.1,-2.0,73,52,32,30.17,30.07,15,5,19,0.06
2013-3-25,39.7,25.1,7.2,9.0,4.7,-1.0,78,46,19,30.22,30.15,11,3,14,0.02
2013-3-26,54.2,41.1,29.6,20.0,14.4,9.0,57,36,19,30.21,30.09,22,6,27,0.00
2013-3-27,57.8,45.0,30.3,21.0,15.9,11.0,60,34,16,30.19,30.10,14,5,24,0.00
2013-3-28,57.8,46.8,38.6,22.0,17.1,13.0,42,31,17,30.25,30.18,14,5,20,0.00
2013-3-29,61.6,48.8,37.2,27.0,22.5,18.0,61,37,19,30.31,30.24,14,5,22,0.00
2013-3-30,57.5,46.0,32.4,33.0,27.0,22.0,74,50,31,30.31,30.22,14,5,22,0.00
2013-3-31,60.5,48.1,35.7,32.0,21.8,12.0,76,40,15,30.26,30.16,10,5,18,0.00
2013-4-1,60.3,48.0,35.3,35.0,23.7,12.0,92,44,17,30.19,30.03,21,7,31,0.02
2013-4-2,52.2,38.5,30.5,32.0,24.6,15.0,92,61,24,30.15,30.04,9,3,18,0.01
2013-4-3,54.9,39.5,29.0,35.0,27.2,20.0,94,67,28,30.29,30.15,13,3,19,0.01
2013-4-4,62.4,48.4,33.9,28.0,21.9,19.0,61,38,19,30.32,30.22,17,4,18,0.00
2013-4-5,60.1,49.0,41.3,31.0,23.6,16.0,58,38,25,30.23,30.06,17,6,26,0.00
2013-4-6,57.9,44.1,29.9,34.0,25.5,11.0,87,54,16,30.16,30.07,15,4,23,0.00
2013-4-7,57.7,44.3,33.0,35.0,27.4,20.0,91,57,26,30.13,29.94,14,4,23,0.01
2013-4-8,52.9,40.8,32.2,35.0,24.9,14.0,94,59,27,29.94,29.66,18,5,32,0.21
2013-4-9,34.4,27.1,15.5,30.0,24.6,13.0,94,90,75,30.02,29.66,12,4,17,0.07
2013-4-10,32.1,20.8,9.7,26.0,16.6,7.0,91,84,73,30.12,30.02,10,3,15,0.18
2013-4-11,42.8,33.1,22.2,34.0,27.3,17.0,92,79,67,30.11,30.03,9,2,13,0.10
2013-4-12,52.2,40.4,31.3,29.0,25.5,22.0,82,57,34,30.10,30.05,11,4,19,0.00
2013-4-13,55.0,46.8,33.5,27.0,18.8,13.0,55,35,20,30.10,29.72,28,11,41,0.00
2013-4-14,49.9,38.8,30.2,36.0,26.6,16.0,95,66,26,29.95,29.82,19,5,26,0.20
2013-4-15,52.2,39.6,28.2,34.0,28.5,23.0,94,68,36,29.89,29.76,26,9,36,0.00
2013-4-16,61.5,47.2,31.6,31.0,19.7,11.0,90,40,14,29.94,29.76,25,9,37,0.00
2013-4-17,31.0,24.2,15.6,29.0,21.9,12.0,95,90,83,30.12,29.85,15,4,19,0.00
2013-4-18,28.9,20.3,12.4,21.0,14.1,10.0,90,77,60,30.31,30.11,16,2,18,0.28
2013-4-19,44.3,31.4,16.1,23.0,16.4,10.0,78,56,36,30.31,30.16,13,4,21,0.10
2013-4-20,42.6,34.2,28.1,38.0,30.0,22.0,95,85,64,30.22,30.11,9,3,14,0.12
2013-4-21,57.1,41.9,27.7,33.0,23.4,11.0,94,56,16,30.26,30.17,13,4,21,0.09
2013-4-22,61.4,49.4,39.7,30.0,23.7,16.0,65,40,18,30.19,30.01,18,6,33,0.00
2013-4-23,40.8,31.7,27.2,29.0,24.2,14.0,93,75,46,30.22,30.09,13,4,17,0.21
2013-4-24,52.0,37.1,26.4,20.0,14.4,9.0,63,42,23,30.27,30.16,14,4,18,0.00
2013-4-25,61.3,46.0,28.8,25.0,18.7,14.0,67,37,18,30.24,30.09,17,4,29,0.00
2013-4-26,62.1,48.7,33.9,25.0,18.4,11.0,56,33,15,30.36,30.18,12,5,22,0.00
2013-4-27,64.4,50.9,36.6,23.0,16.2,10.0,44,27,12,30.38,30.28,12,5,18,0.00
2013-4-28,69.2,54.9,41.5,27.0,18.6,15.0,37,25,15,30.30,30.16,13,5,18,0.00
2013-4-29,70.7,57.0,41.3,28.0,21.4,12.0,47,27,11,30.18,30.02,17,5,23,0.00
2013-4-30,70.8,60.8,49.2,24.0,18.0,10.0,35,20,10,30.03,29.95,23,7,43,0.00
2013-5-1,51.2,38.1,29.1,36.0,24.9,8.0,94,64,23,30.42,30.01,20,7,24,0.04
2013-5-2,48.0,33.8,17.2,16.0,12.7,8.0,86,46,23,30.52,30.42,15,4,18,0.00
2013-5-3,60.7,43.8,25.3,15.0,10.4,2.0,59,30,10,30.45,30.16,16,4,18,0.00
2013-5-4,64.9,51.6,37.3,19.0,13.2,9.0,34,23,12,30.16,30.09,19,5,22,0.00
2013-5-5,61.4,53.4,47.2,29.0,20.0,13.0,44,28,20,30.19,30.12,21,6,25,0.00
2013-5-6,55.7,45.2,36.4,42.0,34.3,28.0,94,68,38,30.20,30.12,12,4,21,0.12
2013-5-7,52.5,42.7,34.3,41.0,36.3,30.0,95,80,45,30.20,30.13,15,4,17,0.02
2013-5-8,47.2,38.5,33.5,38.0,35.4,31.0,95,88,71,30.21,30.12,16,3,20,0.16
2013-5-9,56.4,42.7,35.3,41.0,36.7,33.0,95,81,48,30.29,30.18,9,3,15,0.07
2013-5-10,59.7,46.7,32.8,37.0,31.9,27.0,85,59,30,30.39,30.27,17,5,24,0.00
2013-5-11,65.7,52.7,39.8,30.0,26.5,19.0,59,39,20,30.45,30.39,16,5,20,0.00
2013-5-12,69.3,57.0,45.1,35.0,29.8,26.0,61,38,21,30.45,30.36,16,5,19,0.00
2013-5-13,77.2,61.3,50.8,37.0,32.4,29.0,47,35,19,30.43,30.33,27,7,29,0.00
2013-5-14,77.9,62.3,53.4,38.0,31.8,21.0,51,34,12,30.33,30.20,16,5,26,0.00
2013-5-15,72.3,59.3,49.9,47.0,35.6,17.0,62,42,25,30.23,30.11,15,5,24,0.04
2013-5-16,74.5,61.4,46.2,28.0,23.5,17.0,38,25,16,30.19,30.11,15,6,22,0.00
2013-5-17,73.8,58.7,44.7,24.0,16.6,6.0,39,22,8,30.19,30.10,34,6,39,0.00
2013-5-18,65.5,52.4,41.3,34.0,26.1,18.0,74,39,18,30.18,30.09,19,7,43,0.01
2013-5-19,53.9,43.8,36.6,34.0,30.4,24.0,77,61,33,30.15,30.10,13,5,23,0.00
2013-5-20,58.9,44.8,30.4,35.0,30.1,25.0,88,59,32,30.24,30.12,16,4,26,0.00
2013-5-21,66.4,50.2,33.0,35.0,29.9,22.0,88,51,19,30.25,30.13,10,4,21,0.00
2013-5-22,75.3,61.8,46.4,29.0,22.1,14.0,49,25,10,30.14,30.05,18,6,27,0.00
2013-5-23,76.2,64.1,45.9,23.0,16.6,9.0,34,18,8,30.16,30.08,21,8,38,0.00
2013-5-24,75.7,62.2,41.8,24.0,14.4,8.0,47,17,8,30.25,30.16,17,6,23,0.00
2013-5-25,77.3,61.7,43.9,20.0,13.9,6.0,34,18,7,30.25,30.17,19,6,25,0.00
2013-5-26,76.3,61.8,46.6,22.0,15.5,7.0,32,18,8,30.23,30.14,20,6,27,0.00
2013-5-27,73.3,60.1,47.4,21.0,14.3,10.0,26,17,10,30.19,30.07,22,7,27,0.00
2013-5-28,69.6,58.4,48.6,36.0,20.4,13.0,61,24,14,30.10,29.93,15,6,28,0.00
2013-5-29,60.8,49.2,38.7,41.0,32.0,20.0,93,57,23,30.06,29.96,17,6,24,0.09
2013-5-30,65.6,54.0,43.6,31.0,23.9,14.0,58,34,14,30.17,30.05,30,8,34,0.00
2013-5-31,63.2,52.3,42.3,28.0,19.1,4.0,47,29,15,30.29,30.15,14,5,24,0.00
2013-6-1,68.8,51.7,31.2,21.0,13.9,5.0,48,24,9,30.35,30.28,12,4,18,0.00
2013-6-2,80.0,62.9,42.5,26.0,17.6,11.0,31,19,8,30.31,30.15,15,5,25,0.00
2013-6-3,75.0,66.0,56.7,34.0,25.6,21.0,30,22,14,30.21,30.13,21,7,31,0.00
2013-6-4,78.7,65.5,52.1,35.0,28.5,23.0,41,26,15,30.25,30.18,16,5,25,0.00
2013-6-5,75.6,63.8,51.4,33.0,27.0,19.0,43,26,16,30.27,30.21,17,5,22,0.00
2013-6-6,78.4,64.5,51.7,31.0,25.7,22.0,37,24,13,30.28,30.21,17,6,20,0.00
2013-6-7,76.2,64.1,55.2,35.0,29.6,25.0,36,28,16,30.27,30.18,13,5,27,0.00
2013-6-8,81.8,67.6,53.1,38.0,31.7,27.0,43,28,15,30.25,30.17,15,5,23,0.00
2013-6-9,86.5,68.4,48.7,33.0,27.0,18.0,45,24,8,30.32,30.24,10,4,16,0.00
2013-6-10,88.9,76.2,64.0,29.0,22.8,17.0,24,15,8,30.28,30.19,19,8,28,0.00
2013-6-11,81.6,70.2,57.2,22.0,17.8,12.0,23,14,9,30.33,30.24,30,9,35,0.00
2013-6-12,85.6,72.5,60.0,26.0,19.2,8.0,21,14,6,30.35,30.29,26,8,31,0.00
2013-6-13,86.2,73.0,61.4,40.0,26.5,20.0,45,19,10,30.33,30.23,24,8,44,0.00
2013-6-14,81.6,70.2,54.7,36.0,23.0,8.0,39,20,6,30.27,30.20,21,7,32,0.00
2013-6-15,78.4,66.9,51.3,31.0,21.6,7.0,31,18,12,30.33,30.22,21,7,25,0.00
2013-6-16,76.2,64.0,52.6,48.0,35.1,28.0,67,35,19,30.35,30.28,16,5,28,0.02
2013-6-17,78.7,66.2,52.6,40.0,26.7,17.0,36,24,10,30.32,30.24,20,5,24,0.02
2013-6-18,82.7,71.2,55.9,30.0,18.2,-5.0,25,14,4,30.27,30.15,21,7,28,0.00
2013-6-19,81.6,68.9,51.0,23.0,6.1,-8.0,25,10,3,30.17,30.08,30,7,37,0.00
2013-6-20,81.7,68.8,49.2,22.0,14.2,7.0,31,13,7,30.20,30.14,21,6,27,0.00
2013-6-21,82.4,68.2,51.8,23.0,16.8,12.0,25,15,8,30.24,30.16,22,8,28,0.00
2013-6-22,79.3,67.3,53.0,22.0,16.4,11.0,24,15,8,30.22,30.16,19,8,29,0.00
2013-6-23,80.3,66.4,45.7,25.0,17.4,10.0,35,16,8,30.21,30.11,13,5,27,0.00
2013-6-24,77.6,67.1,56.9,19.0,14.1,3.0,21,13,6,30.20,30.14,15,6,32,0.00
2013-6-25,80.8,69.3,57.3,31.0,23.5,14.0,30,18,14,30.32,30.20,22,8,24,0.00
2013-6-26,89.0,73.7,58.9,33.0,30.1,27.0,33,21,11,30.41,30.31,16,5,19,0.00
2013-6-27,89.8,74.5,62.9,37.0,32.3,28.0,31,22,11,30.47,30.40,31,6,35,0.00
2013-6-28,91.6,77.6,58.7,38.0,31.1,19.0,35,20,7,30.47,30.36,14,5,22,0.00
2013-6-29,87.5,74.4,63.7,54.0,38.1,33.0,53,28,17,30.42,30.30,15,5,21,0.01
2013-6-30,86.0,74.3,61.1,43.0,38.5,34.0,42,29,16,30.39,30.29,14,5,28,0.00
2013-7-1,86.3,71.3,52.6,41.0,36.1,30.0,57,30,14,30.41,30.32,13,4,22,0.00
2013-7-2,84.5,70.3,57.4,45.0,35.4,27.0,63,30,15,30.40,30.28,13,5,28,0.02
2013-7-3,84.8,70.9,57.7,39.0,33.4,28.0,42,27,13,30.33,30.23,23,5,31,0.00
2013-7-4,84.8,71.8,57.6,40.0,36.3,33.0,44,29,16,30.30,30.20,10,4,18,0.00
2013-7-5,84.6,72.9,63.2,59.0,43.1,35.0,61,36,21,30.25,30.16,14,5,20,0.02
2013-7-6,81.4,70.1,61.3,46.0,43.6,39.0,57,40,25,30.32,30.22,14,4,17,0.00
2013-7-7,84.9,71.0,57.7,55.0,45.9,41.0,82,44,21,30.38,30.24,11,4,19,0.04
2013-7-8,86.2,69.5,55.1,49.0,42.4,32.0,71,43,14,30.40,30.34,16,4,22,0.00
2013-7-9,89.1,75.3,61.6,41.0,34.3,25.0,42,25,11,30.45,30.37,13,5,17,0.00
2013-7-10,87.0,76.9,67.4,44.0,37.3,33.0,37,25,15,30.41,30.28,16,5,22,0.00
2013-7-11,85.3,68.2,56.5,58.0,47.1,37.0,90,51,24,30.35,30.28,15,5,28,0.19
2013-7-12,77.8,63.8,52.6,59.0,53.1,50.0,92,71,41,30.37,30.28,19,4,25,0.19
2013-7-13,76.6,65.7,54.0,62.0,54.0,49.0,89,68,40,30.39,30.32,12,3,19,0.05
2013-7-14,81.8,70.3,59.5,53.0,48.4,39.0,73,49,23,30.40,30.29,12,4,21,0.00
2013-7-15,83.0,65.9,52.6,55.0,49.0,45.0,91,58,29,30.34,30.23,14,4,25,0.15
2013-7-16,79.9,63.2,53.8,56.0,52.6,49.0,90,71,39,30.39,30.28,30,4,30,0.05
2013-7-17,82.6,66.6,57.2,56.0,52.7,50.0,91,64,35,30.44,30.36,18,4,20,0.64
2013-7-18,79.8,63.7,54.7,57.0,52.8,48.0,94,70,37,30.46,30.35,22,4,34,0.01
2013-7-19,78.1,64.3,54.2,55.0,50.6,48.0,87,63,38,30.43,30.31,16,5,25,0.00
2013-7-20,85.0,70.8,56.4,50.0,43.1,27.0,73,41,12,30.33,30.22,16,5,19,0.00
2013-7-21,85.6,73.3,60.6,47.0,39.2,27.0,52,31,12,30.30,30.23,13,5,17,0.00
2013-7-22,87.6,73.9,60.1,44.0,34.6,17.0,49,27,8,30.34,30.27,12,5,21,0.00
2013-7-23,87.4,73.3,63.0,44.0,37.0,23.0,41,28,10,30.39,30.30,22,6,32,0.00
2013-7-24,79.1,68.2,57.3,54.0,44.9,38.0,89,45,29,30.43,30.32,11,3,21,0.03
2013-7-25,83.4,71.2,58.7,52.0,44.6,32.0,66,41,17,30.39,30.33,13,5,22,0.01
2013-7-26,85.2,71.4,55.3,54.0,40.7,32.0,64,35,17,30.44,30.36,12,4,19,0.02
2013-7-27,81.4,66.2,55.8,54.0,46.9,38.0,92,53,29,30.40,30.25,20,6,29,0.21
2013-7-28,60.6,56.2,54.2,58.0,53.6,50.0,96,91,77,30.30,30.23,13,3,16,0.43
2013-7-29,71.6,58.1,51.5,56.0,51.4,47.0,97,80,45,30.45,30.27,13,4,23,0.26
2013-7-30,79.3,65.3,50.4,52.0,44.6,35.0,89,52,21,30.49,30.42,11,4,29,0.05
2013-7-31,84.5,71.4,59.9,45.0,38.2,33.0,46,32,16,30.50,30.39,13,4,16,0.00
2013-8-1,65.9,61.4,56.4,58.0,49.7,37.0,95,70,36,30.46,30.34,13,4,19,0.15
2013-8-2,78.5,63.9,51.4,56.0,52.3,48.0,96,69,41,30.41,30.31,14,4,23,0.61
2013-8-3,76.8,62.0,56.7,57.0,51.8,46.0,91,70,42,30.43,30.34,12,4,17,0.14
2013-8-4,77.8,64.4,55.5,54.0,47.4,42.0,79,56,32,30.42,30.38,14,4,23,0.02
2013-8-5,76.0,65.4,54.8,56.0,49.6,45.0,84,59,36,30.41,30.32,11,4,18,0.00
2013-8-6,77.3,60.6,53.5,54.0,48.7,45.0,94,68,38,30.39,30.30,14,5,20,1.16
2013-8-7,65.6,56.2,51.4,52.0,49.4,47.0,93,78,54,30.36,30.28,14,4,21,0.15
2013-8-8,68.7,58.2,52.0,51.0,47.0,43.0,85,68,40,30.37,30.28,18,4,26,0.01
2013-8-9,72.1,59.6,47.2,50.0,43.2,40.0,79,57,37,30.39,30.33,14,5,21,0.12
2013-8-10,75.0,58.2,48.1,49.0,42.3,37.0,91,59,25,30.52,30.38,17,7,32,0.26
2013-8-11,74.9,59.9,44.2,47.0,41.5,38.0,87,55,28,30.44,30.35,13,5,17,0.00
2013-8-12,71.0,61.4,53.3,55.0,44.7,39.0,79,56,36,30.41,30.35,18,5,24,0.09
2013-8-13,78.5,63.9,46.9,47.0,41.0,32.0,83,47,19,30.43,30.37,12,4,20,0.00
2013-8-14,79.5,65.9,57.5,46.0,35.3,26.0,45,34,15,30.42,30.35,17,5,28,0.02
2013-8-15,82.0,68.7,59.7,37.0,32.7,30.0,36,27,16,30.42,30.37,15,5,18,0.00
2013-8-16,85.4,71.4,58.4,38.0,30.2,20.0,36,23,10,30.43,30.36,15,4,18,0.00
2013-8-17,82.6,69.9,56.9,47.0,37.9,30.0,50,32,16,30.42,30.36,24,6,30,0.00
2013-8-18,80.0,64.5,56.6,54.0,45.7,42.0,89,52,29,30.43,30.36,15,5,24,0.23
2013-8-19,83.2,67.3,55.3,50.0,45.3,43.0,67,47,25,30.42,30.32,21,6,32,0.00
2013-8-20,80.9,65.5,53.7,54.0,46.1,42.0,79,52,28,30.39,30.33,11,4,20,0.02
2013-8-21,80.2,64.8,52.2,50.0,45.6,42.0,81,52,29,30.41,30.35,12,4,20,0.01
2013-8-22,80.1,64.7,53.3,56.0,50.0,45.0,90,62,34,30.43,30.34,11,4,22,0.24
2013-8-23,79.1,66.0,55.1,54.0,47.8,43.0,80,55,29,30.35,30.25,12,4,20,0.01
2013-8-24,71.9,61.4,53.5,52.0,47.8,44.0,92,62,40,30.39,30.32,12,3,19,0.08
2013-8-25,63.8,57.8,52.9,57.0,53.6,51.0,95,86,72,30.44,30.38,10,2,12,0.04
2013-8-26,74.1,60.6,53.5,59.0,54.7,52.0,96,82,51,30.48,30.40,11,3,18,0.15
2013-8-27,76.2,61.9,49.7,58.0,52.9,48.0,96,75,45,30.41,30.34,17,3,22,0.26
2013-8-28,82.1,63.5,52.2,56.0,51.7,46.0,93,70,32,30.41,30.34,17,3,31,0.09
2013-8-29,80.3,64.8,56.0,53.0,49.6,46.0,77,60,32,30.45,30.40,18,5,28,0.04
2013-8-30,79.4,65.2,58.2,56.0,51.1,48.0,86,62,33,30.44,30.38,13,3,26,0.07
2013-8-31,81.7,64.7,51.9,57.0,49.8,46.0,81,61,31,30.39,30.31,9,4,21,0.06
2013-9-1,78.7,63.2,50.8,61.0,50.5,46.0,92,65,37,30.36,30.31,9,4,20,0.12
2013-9-2,80.8,67.5,57.7,52.0,48.6,44.0,75,52,29,30.42,30.33,16,5,25,0.01
2013-9-3,82.6,68.5,59.4,52.0,47.4,42.0,63,49,26,30.42,30.36,12,4,22,0.00
2013-9-4,84.1,67.6,59.5,58.0,49.4,47.0,83,55,28,30.46,30.40,11,4,19,0.06
2013-9-5,84.6,69.5,56.8,55.0,48.8,44.0,89,52,24,30.46,30.38,15,4,23,0.61
2013-9-6,83.7,68.2,58.1,52.0,43.9,37.0,80,46,21,30.45,30.33,16,4,38,0.09
2013-9-7,84.1,68.4,59.2,49.0,44.1,40.0,63,43,23,30.38,30.31,16,5,26,0.01
2013-9-8,76.6,63.5,52.8,57.0,49.6,45.0,92,63,32,30.36,30.24,14,3,20,0.13
2013-9-9,67.4,55.0,50.9,57.0,52.1,49.0,96,90,61,30.27,30.21,9,3,23,0.76
2013-9-10,62.0,54.4,50.4,57.0,53.0,50.0,97,95,79,30.30,30.22,8,1,10,0.09
2013-9-11,65.5,56.9,51.4,57.0,52.8,50.0,97,87,64,30.36,30.30,10,2,15,0.05
2013-9-12,68.3,56.4,46.2,54.0,49.2,44.0,95,79,53,30.37,30.29,13,2,17,0.24
2013-9-13,69.8,57.5,45.2,54.0,47.5,43.0,96,72,44,30.34,30.18,9,3,18,0.32
2013-9-14,64.2,54.1,48.1,52.0,47.0,42.0,95,78,52,30.28,30.19,11,3,21,0.36
2013-9-15,65.2,54.7,48.7,50.0,46.1,43.0,93,73,52,30.34,30.23,12,3,18,0.01
2013-9-16,70.6,57.3,48.7,52.0,46.3,42.0,80,68,45,30.38,30.32,13,3,18,0.11
2013-9-17,74.5,61.2,51.7,47.0,43.4,41.0,74,54,32,30.34,30.16,16,4,21,0.00
2013-9-18,71.5,58.8,48.3,49.0,45.2,40.0,91,63,36,30.22,30.17,16,5,30,0.36
2013-9-19,66.6,54.6,46.1,49.0,43.4,37.0,94,68,39,30.31,30.18,11,3,18,0.00
2013-9-20,72.0,56.3,41.9,39.0,35.7,32.0,75,50,25,30.32,30.26,10,2,13,0.00
2013-9-21,72.3,62.5,53.4,44.0,38.3,34.0,68,42,28,30.29,30.14,16,5,23,0.00
2013-9-22,61.3,49.7,37.1,52.0,43.7,35.0,94,81,54,30.13,29.97,16,4,23,0.95
2013-9-23,57.9,46.0,37.7,42.0,36.4,30.0,93,71,44,30.33,30.03,14,4,18,0.02
2013-9-24,67.8,51.6,36.0,40.0,30.4,20.0,71,47,19,30.34,30.18,8,3,12,0.00
2013-9-25,69.8,59.9,45.1,33.0,26.8,21.0,55,30,18,30.17,29.91,31,9,39,0.00
2013-9-26,68.6,60.6,53.5,31.0,22.5,17.0,36,24,15,30.00,29.95,30,9,39,0.00
2013-9-27,57.1,43.4,29.9,40.0,32.5,24.0,93,68,35,30.27,29.95,18,5,32,0.13
2013-9-28,56.1,40.0,26.4,32.0,27.2,21.0,87,63,38,30.37,30.27,10,2,13,0.00
2013-9-29,66.2,50.2,36.1,31.0,22.8,16.0,74,38,18,30.37,30.27,15,5,23,0.00
2013-9-30,71.1,56.3,41.9,33.0,26.7,19.0,50,33,19,30.29,30.20,11,4,21,0.00
2013-10-1,72.2,57.8,44.0,33.0,28.0,23.0,53,34,18,30.26,30.19,10,3,14,0.00
2013-10-2,70.6,56.1,41.8,31.0,22.3,16.0,57,28,17,30.24,30.13,12,4,26,0.00
2013-10-3,65.8,52.5,30.6,32.0,25.7,19.0,93,39,18,30.14,29.96,23,6,33,0.00
2013-10-4,37.0,29.5,19.1,30.0,25.8,16.0,94,86,67,30.36,30.11,7,1,14,0.42
2013-10-5,43.7,31.5,21.7,29.0,24.7,19.0,94,78,48,30.46,30.36,13,2,17,0.06
2013-10-6,55.5,38.3,22.9,30.0,24.0,19.0,89,61,30,30.47,30.41,11,2,11,0.01
2013-10-7,66.0,49.3,33.3,36.0,28.9,23.0,71,49,23,30.41,30.24,9,3,13,0.00
2013-10-8,65.1,53.6,43.4,31.0,25.8,18.0,54,36,24,30.24,30.06,25,6,29,0.00
2013-10-9,61.9,52.5,44.2,37.0,24.1,18.0,74,35,19,30.11,30.04,16,6,35,0.00
2013-10-10,47.1,38.3,32.9,39.0,34.0,27.0,95,85,63,30.07,29.94,18,5,28,0.81
2013-10-11,44.9,38.4,34.8,36.0,31.9,28.0,89,78,64,30.24,30.04,17,4,21,0.02
2013-10-12,55.2,41.5,31.1,32.0,26.6,23.0,78,58,32,30.27,30.19,13,4,18,0.00
2013-10-13,60.9,48.4,31.1,39.0,30.8,25.0,81,54,28,30.22,30.09,26,5,33,0.00
2013-10-14,49.7,39.2,30.4,34.0,29.9,25.0,90,71,39,30.26,30.09,18,5,26,0.02
2013-10-15,44.1,33.9,28.3,32.0,29.1,24.0,95,83,56,30.25,30.18,12,2,18,0.00
2013-10-16,41.2,32.2,27.9,32.0,28.4,23.0,95,86,61,30.27,30.20,7,1,11,0.27
2013-10-17,50.2,36.7,27.1,25.0,21.0,16.0,84,57,27,30.26,30.15,12,4,17,0.01
2013-10-18,43.5,35.4,28.8,24.0,18.9,11.0,80,53,31,30.32,30.15,12,3,18,0.00
2013-10-19,51.3,38.0,25.2,25.0,18.3,10.0,71,47,28,30.32,30.24,9,3,13,0.00
2013-10-20,52.4,41.3,33.2,27.0,20.7,17.0,60,45,29,30.24,30.14,13,4,16,0.00
2013-10-21,51.7,39.4,28.0,28.0,19.8,8.0,84,50,18,30.35,30.19,10,2,13,0.00
2013-10-22,55.3,41.4,28.9,27.0,21.9,15.0,66,48,31,30.38,30.33,11,3,14,0.00
2013-10-23,59.7,45.7,33.5,28.0,23.9,19.0,67,45,26,30.34,30.28,11,4,13,0.00
2013-10-24,61.9,49.5,34.4,29.0,25.1,20.0,65,41,22,30.34,30.28,10,3,15,0.00
2013-10-25,55.6,43.9,36.1,38.0,32.6,27.0,86,66,45,30.36,30.31,15,4,22,0.00
2013-10-26,57.2,44.9,33.4,36.0,31.7,28.0,90,63,35,30.43,30.36,9,3,16,0.00
2013-10-27,58.7,46.4,35.5,31.0,28.1,25.0,72,51,30,30.37,30.05,10,3,16,0.00
2013-10-28,55.5,49.6,40.4,29.0,21.3,12.0,57,34,22,30.05,29.98,20,8,35,0.00
2013-10-29,49.5,41.6,30.0,33.0,23.4,11.0,94,54,22,30.07,30.00,18,5,31,0.02
2013-10-30,36.9,29.1,21.3,31.0,25.8,19.0,93,87,67,30.11,30.05,7,2,13,0.33
2013-10-31,35.3,30.3,26.5,27.0,24.2,22.0,92,79,61,30.23,30.12,9,3,12,0.08
2013-11-1,42.9,35.3,30.1,29.0,25.5,19.0,83,68,47,30.38,30.22,9,3,12,0.00
2013-11-2,55.6,38.0,25.8,29.0,22.2,17.0,75,56,30,30.38,30.13,9,2,10,0.00
2013-11-3,53.8,42.6,30.7,28.0,21.3,14.0,82,45,28,30.12,29.90,30,6,37,0.00
2013-11-4,40.7,29.5,21.1,26.0,21.6,17.0,90,73,49,30.08,29.99,7,1,13,0.00
2013-11-5,28.4,22.4,14.8,22.0,18.3,10.0,93,84,68,30.33,30.05,8,3,10,0.06
2013-11-6,40.8,25.6,8.7,21.0,14.3,4.0,88,65,33,30.48,30.33,7,2,10,0.04
2013-11-7,50.3,35.6,22.3,26.0,21.8,17.0,80,60,36,30.49,30.28,6,2,13,0.01
2013-11-8,55.9,44.2,35.4,22.0,18.2,14.0,56,37,21,30.28,30.20,13,5,22,0.00
2013-11-9,56.0,42.8,34.6,24.0,20.2,17.0,59,42,24,30.35,30.26,9,3,11,0.00
2013-11-10,57.1,44.3,35.6,24.0,19.4,16.0,52,38,24,30.40,30.35,9,4,15,0.00
2013-11-11,55.2,43.5,32.8,21.0,17.9,15.0,52,37,22,30.50,30.39,13,4,14,0.00
2013-11-12,56.6,43.0,28.8,24.0,19.6,17.0,63,41,25,30.57,30.50,9,3,12,0.00
2013-11-13,54.6,43.5,35.7,24.0,20.6,17.0,59,42,27,30.50,30.25,11,4,14,0.00
2013-11-14,47.0,38.1,30.8,28.0,23.8,9.0,78,58,30,30.26,30.01,12,3,15,0.00
2013-11-15,49.6,39.0,30.8,32.0,22.1,3.0,94,56,22,30.03,29.82,15,4,26,0.05
2013-11-16,39.0,33.8,29.1,31.0,28.5,26.0,95,81,60,29.91,29.77,40,8,44,0.18
2013-11-17,45.8,37.7,29.8,28.0,25.2,22.0,80,63,40,30.28,29.91,11,4,24,0.06
2013-11-18,47.1,35.6,26.4,23.0,19.1,14.0,76,53,33,30.34,30.23,11,3,13,0.00
2013-11-19,50.3,39.4,30.3,30.0,23.7,17.0,66,54,39,30.22,30.05,10,3,14,0.00
2013-11-20,48.2,36.9,31.0,33.0,29.2,26.0,95,75,47,30.09,29.99,8,1,11,0.04
2013-11-21,40.2,34.7,30.9,37.0,32.7,30.0,95,92,82,30.24,30.03,6,1,10,0.28
2013-11-22,30.4,27.7,25.5,29.0,26.3,24.0,96,94,91,30.29,30.24,7,1,9,0.01
2013-11-23,36.9,31.4,26.8,35.0,30.1,26.0,96,95,90,30.30,30.20,4,0,6,0.06
2013-11-24,32.1,29.7,26.5,31.0,28.8,25.0,97,96,94,30.22,30.12,5,0,6,0.01
2013-11-25,32.8,26.1,18.0,30.0,24.4,16.0,96,93,87,30.37,30.14,8,1,9,0.00
2013-11-26,33.9,24.7,14.0,31.0,22.3,12.0,96,90,83,30.43,30.37,5,2,8,0.04
2013-11-27,38.1,27.9,19.3,32.0,24.1,16.0,94,86,70,30.38,30.24,6,1,7,0.05
2013-11-28,41.5,29.4,19.2,31.0,24.8,17.0,95,84,64,30.30,30.22,6,1,8,0.01
2013-11-29,43.2,30.1,20.7,27.0,22.5,18.0,93,76,48,30.37,30.29,8,2,11,0.01
2013-11-30,43.2,30.3,20.9,29.0,23.0,17.0,94,76,47,30.37,30.31,8,2,11,0.00
2013-12-1,35.3,27.7,20.3,29.0,23.3,18.0,94,84,62,30.39,30.27,10,2,15,0.01
2013-12-2,46.0,35.6,23.8,27.0,22.7,19.0,92,62,38,30.28,29.94,14,3,22,0.00
2013-12-3,47.2,40.6,31.8,28.0,21.0,17.0,67,46,34,29.94,29.64,25,9,36,0.00
2013-12-4,38.8,18.2,-1.8,28.0,13.3,-6.0,91,82,57,29.96,29.60,24,5,40,0.00
2013-12-5,18.5,5.0,-8.4,13.0,0.6,-14.0,88,82,71,29.96,29.87,6,1,10,0.10
2013-12-6,17.5,6.5,-4.9,12.0,1.6,-9.0,86,80,73,30.07,29.93,7,2,9,0.00
2013-12-7,22.9,15.8,5.4,17.0,11.1,2.0,90,82,66,30.05,29.76,13,2,22,0.00
2013-12-8,20.2,11.9,0.0,16.0,5.1,-6.0,88,75,50,30.00,29.72,21,5,26,0.00
2013-12-9,12.4,2.7,-6.5,5.0,-3.4,-11.0,85,76,62,30.36,30.00,7,3,11,0.00
2013-12-10,28.0,11.0,-6.2,12.0,2.0,-11.0,85,69,44,30.35,30.22,8,2,11,0.00
2013-12-11,35.9,18.9,3.8,18.0,9.0,0.0,87,67,38,30.46,30.28,6,2,8,0.01
2013-12-12,39.7,24.4,9.0,19.0,11.2,4.0,85,60,34,30.45,30.19,7,2,9,0.02
2013-12-13,37.6,24.0,11.6,18.0,12.4,6.0,83,63,39,30.26,30.09,9,2,13,0.02
2013-12-14,29.1,17.1,6.0,15.0,9.7,2.0,90,74,52,30.44,30.26,8,2,9,0.00
2013-12-15,40.4,27.3,10.4,20.0,14.9,6.0,87,62,42,30.45,30.40,10,2,14,0.00
2013-12-16,45.8,32.4,20.4,20.0,16.7,13.0,74,55,32,30.47,30.41,8,2,10,0.00
2013-12-17,45.6,31.5,19.4,21.0,16.3,12.0,75,56,31,30.49,30.35,6,2,9,0.00
2013-12-18,49.4,38.7,29.2,23.0,15.5,9.0,61,41,20,30.34,29.99,10,2,14,0.00
2013-12-19,44.8,36.6,28.7,27.0,20.5,15.0,86,54,31,29.99,29.84,14,3,21,0.00
2013-12-20,33.2,28.5,23.3,29.0,25.3,21.0,94,88,69,29.89,29.84,9,2,11,0.06
2013-12-21,27.2,22.1,18.3,23.0,19.4,15.0,92,89,81,30.01,29.77,8,1,12,0.01
2013-12-22,28.1,20.5,10.1,17.0,13.5,6.0,90,75,57,30.31,30.01,7,2,11,0.02
2013-12-23,34.5,24.8,18.3,16.0,14.1,11.0,83,65,44,30.44,30.30,8,2,12,0.00
2013-12-24,44.0,28.1,12.9,25.0,19.0,10.0,88,71,46,30.39,30.27,16,4,22,0.01
2013-12-25,35.2,20.3,8.2,12.0,5.1,-1.0,88,57,22,30.45,30.39,8,2,12,0.01
2013-12-26,39.9,25.2,11.3,12.0,7.4,2.0,69,49,29,30.43,30.36,8,2,10,0.00
2013-12-27,42.4,29.1,16.1,18.0,15.2,11.0,82,59,35,30.42,30.27,6,2,8,0.00
2013-12-28,42.2,30.5,19.7,22.0,18.1,14.0,80,61,42,30.27,30.08,8,3,12,0.00
2013-12-29,26.6,20.0,12.2,20.0,14.5,7.0,89,79,66,30.26,30.12,8,2,14,0.00
2013-12-30,34.8,24.2,12.1,12.0,8.4,3.0,86,53,29,30.34,30.22,9,3,13,0.00
2013-12-31,44.4,33.1,26.0,28.0,18.6,11.0,85,56,42,30.33,30.21,9,3,13,0.00
2014-1-1,38.2,30.5,22.1,27.0,15.2,3.0,83,55,26,30.36,30.20,17,4,22,0.00
2014-1-2,45.6,31.9,16.5,8.0,-0.3,-12.0,50,28,9,30.38,30.26,10,4,15,0.00